• Join FlightAware (Why Join?)
  • Login
  • US Flag 
08:14AM EST


 

Airport Tracker/Info


-or-


 

Live Flight TrackerFlight Track Log ✈ N240JK ✈ 10-Apr-2013 ✈ KPIE - KUES

Flight Track Log - Related Links

Times and Time Zones

All times are in EDT time to prevent confusion due to time zone crossing. See the N240JK flight status page for this flight to view local times or setup timezone preferences in your user account.

Time Position Orientation Groundspeed Altitude Reporting Facility
EDT Latitude Longitude Course Direction KTS MPH feet Rate Location/Type
11:02AM 27.9000 -82.6833 252° West 194 223 600  Level Tampa TRACON
11:04AM 27.8667 -82.8000 252° West 256 295 2,400 1,860 Climbing Tampa TRACON
11:05AM 27.8667 -82.8667 270° West 270 311 5,200 3,000 Climbing Tampa TRACON
11:06AM 27.8833 -82.9500 283° West 283 326 8,200 1,980 Climbing Tampa TRACON
11:08AM 28.0769 -82.8925 15° North 311 358 11,900 1,740 Climbing Jacksonville Center
11:09AM 28.1853 -82.8525 18° North 345 397 14,100 2,460 Climbing Jacksonville Center
11:10AM 28.2856 -82.8147 18° North 367 422 16,900 1,440 Climbing Jacksonville Center
11:11AM 28.3897 -82.7769 18° North 378 435 17,000 60 Climbing Jacksonville Center
11:12AM 28.5047 -82.7414 15° North 403 464 17,100 600 Climbing Jacksonville Center
11:13AM 28.6194 -82.7814 343° North 408 470 18,300 1,500 Climbing Jacksonville Center
11:14AM 28.7217 -82.8169 343° North 408 470 20,100 2,280 Climbing Jacksonville Center
11:15AM 28.8364 -82.8547 344° North 415 478 22,900 2,760 Climbing Jacksonville Center
11:16AM 28.9472 -82.8950 342° North 415 478 25,700 1,680 Climbing Jacksonville Center
11:17AM 29.0642 -82.9331 344° North 425 489 26,300 1,020 Climbing Jacksonville Center
11:18AM 29.1872 -82.9733 344° North 437 503 27,800 1,680 Climbing Jacksonville Center
11:19AM 29.3083 -83.0069 346° North 443 510 29,700 1,560 Climbing Jacksonville Center
11:20AM 29.4314 -83.0428 346° North 449 517 31,000 1,620 Climbing Jacksonville Center
11:21AM 29.5608 -83.0836 345° North 465 535 33,000 2,040 Climbing Jacksonville Center
11:22AM 29.6817 -83.0933 356° North 453 521 35,100 2,100 Climbing Jacksonville Center
11:23AM 29.8008 -83.0936 360° North 440 506 37,200 2,100 Climbing Jacksonville Center
11:24AM 29.9178 -83.0939 360° North 428 493 39,300 1,380 Climbing Jacksonville Center
11:25AM 30.0303 -83.1397 341° North 405 466 40,000 300 Climbing Jacksonville Center
11:26AM 30.1367 -83.1783 343° North 393 452 40,000  Level Jacksonville Center
11:27AM 30.2453 -83.2194 342° North 398 458 40,000  Level Jacksonville Center
11:28AM 30.3494 -83.2586 342° North 398 458 40,000  Level Jacksonville Center
11:29AM 30.4558 -83.2997 342° North 403 464 40,000  Level Jacksonville Center
11:30AM 30.5642 -83.3436 341° North 403 464 40,000  Level Jacksonville Center
11:31AM 30.6706 -83.3828 342° North 403 464 40,000  Level Jacksonville Center
11:32AM 30.7769 -83.4244 341° North 403 464 40,000  Level Jacksonville Center
11:33AM 30.8667 -83.4639 339° North 398 458 40,000  Level Jacksonville Center
11:34AM 30.9750 -83.5081 341° North 398 458 40,000  Level Jacksonville Center
11:35AM 31.0853 -83.5525 341° North 408 470 40,000  Level Jacksonville Center
11:38AM 31.3683 -83.6644 341° North 407 468 40,000  Level Atlanta Center
11:39AM 31.4747 -83.7078 341° North 407 468 40,000  Level Atlanta Center
11:40AM 31.5856 -83.7536 341° North 413 475 40,000  Level Atlanta Center
11:41AM 31.6942 -83.7947 342° North 413 475 40,000  Level Atlanta Center
11:42AM 31.8278 -83.8483 341° North 429 494 40,000  Level Atlanta Center
11:43AM 31.9344 -83.8919 341° North 429 494 40,000  Level Atlanta Center
11:44AM 32.0450 -83.9358 341° North 424 488 40,000  Level Atlanta Center
11:45AM 32.1536 -83.9800 341° North 418 481 40,000  Level Atlanta Center
11:46AM 32.2642 -84.0242 341° North 418 481 40,000  Level Atlanta Center
11:47AM 32.3769 -84.0708 341° North 418 481 40,000  Level Atlanta Center
11:48AM 32.4875 -84.1178 340° North 423 487 40,000  Level Atlanta Center
11:49AM 32.5981 -84.1622 341° North 423 487 40,000  Level Atlanta Center
11:50AM 32.7108 -84.2092 341° North 423 487 40,000  Level Atlanta Center
11:51AM 32.8214 -84.2514 342° North 428 493 40,000  Level Atlanta Center
11:52AM 32.9403 -84.2789 349° North 422 486 40,000  Level Atlanta Center
11:53AM 33.0592 -84.3064 349° North 427 491 40,000  Level Atlanta Center
11:54AM 33.1803 -84.3342 349° North 436 502 40,000  Level Atlanta Center
11:55AM 33.2992 -84.3619 349° North 436 502 40,000  Level Atlanta Center
11:56AM 33.4181 -84.3897 349° North 436 502 40,000  Level Atlanta Center
11:57AM 33.5392 -84.4150 350° North 431 496 40,000  Level Atlanta Center
11:58AM 33.6578 -84.4506 346° North 431 496 40,000  Level Atlanta Center
11:59AM 33.7706 -84.5011 340° North 425 489 40,000  Level Atlanta Center
12:00PM 33.8683 -84.5417 341° North 431 496 40,000  Level Atlanta Center
12:01PM 33.9831 -84.5925 340° North 431 496 40,000  Level Atlanta Center
12:02PM 34.0953 -84.6433 339° North 431 496 40,000  Level Atlanta Center
12:03PM 34.2225 -84.6994 340° North 443 510 40,000  Level Atlanta Center
12:04PM 34.3328 -84.7481 340° North 426 490 40,000  Level Atlanta Center
12:05PM 34.4411 -84.7969 340° North 426 490 40,000  Level Atlanta Center
12:06PM 34.5556 -84.8458 341° North 426 490 40,000  Level Atlanta Center
12:07PM 34.6533 -84.8897 340° North 426 490 40,000  Level Atlanta Center
12:08PM 34.7697 -84.9467 338° Northwest 420 483 40,000  Level Atlanta Center
12:09PM 34.8800 -84.9983 339° North 420 483 40,000  Level Atlanta Center
12:10PM 34.9903 -85.0478 340° North 420 483 40,000  Level Atlanta Center
12:11PM 35.1025 -85.0975 340° North 420 483 40,000  Level Atlanta Center
12:12PM 35.2125 -85.1472 340° North 420 483 40,000  Level Atlanta Center
12:13PM 35.3247 -85.1994 339° North 426 490 40,000  Level Atlanta Center
12:14PM 35.4369 -85.2494 340° North 426 490 40,000  Level Atlanta Center
12:16PM 35.6881 -85.3633 340° North 437 503 40,000  Level Indianapolis Center
12:16PM 35.7103 -85.3767 334° Northwest 438 504 40,000  Level Memphis Center
12:17PM 35.8231 -85.4286 340° North 438 504 40,000  Level Memphis Center
12:18PM 35.9375 -85.4808 340° North 438 504 40,000  Level Memphis Center
12:19PM 36.0503 -85.5358 338° Northwest 438 504 40,000  Level Memphis Center
12:20PM 36.1628 -85.5883 339° North 438 504 40,000  Level Memphis Center
12:21PM 36.2836 -85.6431 340° North 438 504 40,000  Level Memphis Center
12:22PM 36.3983 -85.6981 339° North 438 504 40,000  Level Memphis Center
12:23PM 36.5128 -85.7508 340° North 438 504 40,000  Level Memphis Center
12:24PM 36.6233 -85.8042 339° North 438 504 40,000  Level Memphis Center
12:25PM 36.7419 -85.8569 340° North 444 511 40,000  Level Memphis Center
12:26PM 36.8542 -85.9103 339° North 438 504 40,000  Level Memphis Center
12:28PM 37.0833 -86.0194 339° North 447 514 40,000  Level Indianapolis Center
12:30PM 37.2086 -86.0744 341° North  Level FlightAware Approximate
12:30PM 37.3139 -86.1303 341° North 440 506 40,000  Level Indianapolis Center
12:31PM 37.4294 -86.1858 339° North 440 506 40,000  Level Indianapolis Center
12:32PM 37.5464 -86.2428 339° North 444 511 40,000  Level Indianapolis Center
12:33PM 37.6814 -86.3086 339° North 442 509 40,000  Level Indianapolis Center
12:34PM 37.7975 -86.3653 339° North 443 510 40,000  Level Indianapolis Center
12:35PM 37.9014 -86.4178 338° Northwest 443 510 40,000  Level Indianapolis Center
12:37PM 38.0178 -86.4761 338° Northwest 448 516 40,000  Level Indianapolis Center
12:38PM 38.1597 -86.5461 339° North 457 526 40,000  Level Indianapolis Center
12:39PM 38.2747 -86.6017 339° North 447 514 40,000  Level Indianapolis Center
12:40PM 38.3917 -86.6600 339° North 453 521 40,000  Level Indianapolis Center
12:41PM 38.5072 -86.7183 338° Northwest 452 520 40,000  Level Indianapolis Center
12:42PM 38.6211 -86.7761 338° Northwest 444 511 40,000  Level Indianapolis Center
12:43PM 38.7353 -86.8339 338° Northwest 441 507 40,000  Level Indianapolis Center
12:44PM 38.8461 -86.8903 338° Northwest 431 496 40,000  Level Indianapolis Center
12:45PM 38.9778 -86.9583 338° Northwest 425 489 40,000  Level Indianapolis Center
12:46PM 39.0883 -87.0136 339° North 425 489 40,000  Level Indianapolis Center
12:47PM 39.1975 -87.0700 338° Northwest 422 486 40,000  Level Indianapolis Center
12:48PM 39.3069 -87.1244 339° North 421 484 40,000  Level Indianapolis Center
12:49PM 39.4139 -87.1797 338° Northwest 414 476 40,000  Level Indianapolis Center
12:50PM 39.5225 -87.2367 338° Northwest 418 481 40,000  Level Indianapolis Center
12:51PM 39.6300 -87.2931 338° Northwest 418 481 40,000  Level Indianapolis Center
12:52PM 39.7381 -87.3500 338° Northwest 418 481 40,000  Level Indianapolis Center
12:53PM 39.8467 -87.4044 339° North 416 479 40,000  Level Indianapolis Center
12:54PM 39.9531 -87.4608 338° Northwest 414 476 40,000  Level Indianapolis Center
12:55PM 40.0853 -87.5311 338° Northwest 423 487 40,000  Level Indianapolis Center
12:56PM 40.1564 -87.5692 338° Northwest 425 489 40,000  Level Chicago Center
12:57PM 40.2656 -87.6269 338° Northwest 425 489 40,000  Level Chicago Center
12:57PM 40.3036 -87.6450 340° North 419 482 40,000 -1,740 Level Indianapolis Center
12:58PM 40.4139 -87.7022 338° Northwest 422 486 37,700 -2,520 Descending Indianapolis Center
12:59PM 40.4836 -87.7431 336° Northwest 430 495 35,800 -2,640 Descending Chicago Center
01:00PM 40.6014 -87.8053 338° Northwest 454 522 33,200 -1,860 Descending Chicago Center
01:01PM 40.7158 -87.8672 338° Northwest 451 519 32,000 -600 Descending Chicago Center
01:02PM 40.8561 -87.9419 338° Northwest 452 520 32,000  Level Chicago Center
01:03PM 40.9781 -88.0078 338° Northwest 470 541 32,000  Level Chicago Center
01:04PM 41.1003 -88.0733 338° Northwest 473 544 32,000 -360 Level Chicago Center
01:05PM 41.2217 -88.1403 337° Northwest 472 543 31,300 -1,080 Descending Chicago Center
01:06PM 41.3450 -88.2064 338° Northwest 470 541 29,800 -1,620 Descending Chicago Center
01:07PM 41.4689 -88.2756 337° Northwest 472 543 28,000 -1,860 Descending Chicago Center
01:08PM 41.5983 -88.3167 347° North 485 558 26,000 -1,920 Descending Chicago Center
01:09PM 41.7303 -88.3150 North 472 543 24,100 -1,680 Descending Chicago Center
01:10PM 41.8511 -88.3139 360° North 435 501 22,600 -1,500 Descending Chicago Center
01:11PM 41.9644 -88.3133 360° North 411 473 21,100 -2,220 Descending Chicago Center
01:12PM 42.0986 -88.3136 360° North 401 461 18,100 -2,100 Descending Chicago Center
01:13PM 42.2036 -88.3114 North 381 438 16,900 -900 Descending Chicago Center
01:14PM 42.3072 -88.3114 360° North 374 430 16,300 -1,380 Descending Chicago Center
01:15PM 42.4147 -88.3103 360° North 371 427 14,100 -2,040 Descending Chicago Center
01:16PM 42.5094 -88.3075 North 345 397 12,200 -1,920 Descending Chicago Center
01:17PM 42.6000 -88.3069 360° North 328 377 10,200 -1,980 Descending Chicago Center
01:18PM 42.6831 -88.3281 349° North 308 354 8,200 -2,040 Descending Chicago Center
01:19PM 42.7592 -88.3631 341° North 291 335 6,000 -1,620 Descending Chicago Center
01:20PM 42.8292 -88.4006 339° North 272 313 4,900 -1,380 Descending Chicago Center
01:21PM 42.9019 -88.4444 336° Northwest 253 291 3,200 -960 Descending Chicago Center
01:22PM 42.9606 -88.4864 332° Northwest 243 280 3,000 -60 Descending Chicago Center
01:23PM 43.0186 -88.4933 355° North 227 261 3,100  Climbing Chicago Center
01:24PM 43.0611 -88.4628 28° Northeast 194 223 3,000 -60 Descending Chicago Center
01:25PM 43.0667 -88.4050 82° East 164 189 3,000 -240 Level Chicago Center
01:26PM 43.0592 -88.3511 101° East 153 176 2,600 -600 Descending Chicago Center
01:27PM 43.0500 -88.2986 103° East 133 153 1,800 -720 Descending Chicago Center
01:29PM 43.0447 -88.2597 101° East 128 147 1,200 -600 Descending Chicago Center